Weather WX

World > North America > United States > Ohio

Benton, Ohio Regional Weather

Lat: 40.95N, Lon: 83.17W
Wx Zone: OHZ027
Warning FLW WEATHER ALERT - FLASH FLOOD WATCH (More Info. Click Here) Warning
Feedback

Benton, OH Regional Weather

Expires:201906201600;;790160
ASUS41 KCLE 201512
RWRCLE
OHIO REGIONAL WEATHER ROUNDUP
NATIONAL WEATHER SERVICE WILMINGTON, OH
1100 AM EDT THU JUN 20 2019

NOTE: "FAIR" INDICATES FEW OR NO CLOUDS BELOW 12,000 FEET WITH NO
SIGNIFICANT WEATHER AND/OR OBSTRUCTIONS TO VISIBILITY.


OHZ001>008-015>018-024>027-034-035-043-044-201600-
   NORTHWEST OHIO
  
CITY           SKY/WX    TMP DP  RH WIND       PRES   REMARKS
DEFIANCE       LGT RAIN  65  62  90 NE8       29.55F                  
FINDLAY        PTSUNNY   75  68  78 SW13      29.54F                  
TOLEDO EXPRESS LGT RAIN  66  63  90 NE5       29.57S FOG              
TOLEDO EXEC    CLOUDY    65  63  93 NE9       29.58S                  
LIMA           PTSUNNY   74  68  81 SW14      29.56S                  
$$
 

SKY/WX - Weather  TMP - Temperature  DP - Dew Point  RH - Relative Humidity
WIND - Wind Direction/Speed PRES - Barometric Pressure VSB - Visibility
WCI - Wind Chill Index E13G22 Wind - East Wind 13 mph/Gusts of 22 mph